DELTA 1 R/B, 6127

Orbit data source: Space-Track

DELTA 1 R/B, 6127 is space debris in SSO originally from a launch on Sun, 23 Jul 1972 UTC launched from the Air Force Western Test Range (AFWTR). Debris objects in space refer to the collection of defunct objects orbiting the Earth. Examples of debris include non-operational satellites, rocket bodies, and fragments generated from explosions, collisions, or faulty payload assembly.

Loading next visibility...
Identifier
6127, 1972-058B
Orbit
SSO
Country
Flag of USUS
Related business
Manufacturer
Aerojet
Mission
Spacecraft
Bus & Motor
DSV-3N, AJ10-118F
Mass
756 kg wet, 756 kg dry
Launch date (UTC)
1972-07-23 (54 years ago)
Launch vehicle
Unknown
Launch site
Air Force Western Test Range (AFWTR)
Object type
Payload
Rocket body
Debris
Shape & HBR
Unknown
Radar Cross Section
Large (>1 m²)

Expand to show TLE details & history
Last TLE update: 1 week ago

TLE from 1 week ago
0 DELTA 1 R/B
1 06127U 72058B   26155.25316173  .00002315  00000-0  24787-3 0  9997
2 06127  98.4691  19.5022 0083647 333.7217  25.9764 14.87307201697860
Epoch: 2026-06-04T06:04Z
TLE epoch observation values (Epoch: 2026-06-04T06:04:33.173Z)
Latitude
-0.00007°
Longitude
35.66391°
Altitude
556.93 km
Speed
7.612 km/s
True Right ascension
01h 18m 00s
True Declination
0° 00' 00"
Sunlit
Object was in daylight at epoch
Visualization orbit readout
Latitude
Unknown
Longitude
Unknown
Altitude
Unknown
Speed
Unknown
Apparent Right ascension
Unknown
Apparent Declination
Unknown
Sunlit
N/A
Visualization observer readout
Local Sidereal Time
05:15:28
Azimuth
Unknown
Elevation
Unknown
Doppler factor
Unknown
Orbital elements
Apogee altitude
661.809 km
Perigee altitude
545.012 km
Semi-major axis
6,981.548 km
Eccentricity
0.00836
Inclination
98.4691°
RAAN
19.5022°
Arg. of periapsis
333.7217°
True anomaly
26.40021°
Mean anomaly
25.9764°
Eccentric anomaly
26.18791°
Mean motion
3.72062 °/min
Orbital period
96.76 mins
BSTAR
0.00024787
Loading maneuver chart data...
Computing Atmospheric mass density...

Documentation

Showing up to 5 results
|